Location: Byszew
(52.1813°N, 19.2693°E)
Time: 19:02:52
(UTC+00:00)

AIST 2D - Pass Details

Date: 04 July 2022
Orbit: 433 x 444 km, 97.0° (Epoch: 07 August)

Event Time Altitude Azimuth Distance (km) Brightness Sun altitude
Rises 21:54:39 0° 355° (N) 2,430 ? -14.1°
Reaches altitude 10° 21:57:49 10° 321° (NW) 1,556 ? -14.2°
Maximum altitude 21:58:59 12° 301° (WNW) 1,466 ? -14.3°
Drops below altitude 10° 22:00:08 10° 280° (W) 1,554 ? -14.3°
Sets 22:03:18 0° 246° (WSW) 2,419 ? -14.4°
